Des Moines, IA

3:24 PM CDT on April 26, 2017 (GMT -0500)
Des Moines International

Weather History for KDSM - March, 2013

Change the Weather History Date:

Tuesday, March 5, 2013

  Actual Average Record
Temperature  
Mean Temperature 30 °F 35 °F  
Max Temperature 33 °F 44 °F 74 °F (2009)
Min Temperature 27 °F 26 °F -15 °F (1960)
Degree Days  
Heating Degree Days 35 30  
Month to date heating degree days 179 156  
Since 1 July heating degree days 4536 4987  
Cooling Degree Days 0 0  
Month to date cooling degree days 0 0  
Year to date cooling degree days 0 0  
Moisture  
Dew Point 23 °F    
Average Humidity 81    
Maximum Humidity 92    
Minimum Humidity 69    
Precipitation  
Precipitation 0.07 in 0.06 in 0.91 in (1946)
Month to date precipitation 0.11 0.31  
Year to date precipitation 2.96 2.59  
Snow  
Snow 0.90 in 0.20 in 7.90 in (1915)
Month to date snowfall 1.5 1.0  
Since 1 July snowfall 40.2 29.3  
Snow Depth 6.00 in    
Sea Level Pressure  
Sea Level Pressure 30.06 in    
Wind  
Wind Speed 16 mph (NW)    
Max Wind Speed 33 mph    
Max Gust Speed 39 mph    
Visibility 6 miles    
Events Snow    
T = Trace of Precipitation, MM = Missing Value Source: NWS Daily Summary

Daily Weather History Graph

Daily Weather History Graph

Search for Another Location

Airport or City:

Trip Planner

Search our weather history database for the weather conditions in past years. The results will help you decide how hot, cold, wet, or windy it might be!

Date:

Astronomy

Mar. 05, 2013 Rise Set
Actual Time 6:42 AM CST 6:10 PM CST
Civil Twilight 6:14 AM CST 6:37 PM CST
Nautical Twilight 5:42 AM CST 7:10 PM CST
Astronomical Twilight 5:10 AM CST 7:42 PM CST
Moon 1:58 AM CST (3/5) 11:46 AM CST (3/5)
Length of Visible Light 12h 23m
Length of Day
11h 27m
Last Quarter, 40% of the Moon is Illuminated
Mar 5
Last Quarter
Mar 11
New
Mar 19
First Quarter
Mar 27
Full
Apr 2
Last Quarter

Hourly Weather History & Observations

Time (CST) Temp. Windchill Dew Point Humidity Pressure Visibility Wind Dir Wind Speed Gust Speed Precip Events Conditions
12:05 AM 33.1 °F - 30.0 °F 89% 29.94 in 1.2 mi Calm Calm - 0.01 in Snow Light Snow
1:54 AM 32.0 °F 26.4 °F 30.0 °F 92% 29.97 in 0.8 mi NW 5.8 mph - 0.02 in Snow Light Snow
2:25 AM 32.0 °F 26.4 °F 30.0 °F 92% 29.95 in 1.5 mi NW 5.8 mph - 0.00 in Snow Light Snow
2:54 AM 32.0 °F 23.0 °F 30.0 °F 92% 29.97 in 1.5 mi NW 11.5 mph - 0.01 in Snow Light Snow
3:02 AM 32.0 °F 23.6 °F 30.0 °F 92% 29.95 in 1.0 mi NW 10.4 mph - 0.01 in Snow Light Snow
3:09 AM 32.0 °F 24.2 °F 30.0 °F 92% 29.94 in 0.8 mi NW 9.2 mph - 0.01 in Snow Light Snow
3:37 AM 32.0 °F 20.8 °F 28.0 °F 85% 29.94 in 3.0 mi NW 17.3 mph 25.3 mph 0.03 in Snow Light Snow
3:44 AM 32.0 °F 20.1 °F 26.1 °F 79% 29.94 in 8.0 mi NW 19.6 mph - 0.03 in Snow Light Snow
3:54 AM 32.0 °F 21.6 °F 25.0 °F 75% 29.98 in 9.0 mi NW 15.0 mph 25.3 mph 0.03 in Snow Light Snow
4:54 AM 30.9 °F 21.2 °F 24.1 °F 76% 29.99 in 9.0 mi NW 12.7 mph - 0.00 in Snow Light Snow
5:32 AM 28.9 °F 17.3 °F 23.0 °F 78% 29.98 in 2.0 mi NW 16.1 mph - 0.00 in Snow Light Snow
5:42 AM 28.9 °F 19.8 °F 23.0 °F 78% 29.98 in 8.0 mi NW 10.4 mph 19.6 mph 0.00 in Snow Light Snow
5:54 AM 28.9 °F 18.6 °F 21.9 °F 75% 30.01 in 9.0 mi NW 12.7 mph - 0.00 in Snow Light Snow
6:54 AM 27.0 °F 15.2 °F 19.9 °F 75% 30.03 in 10.0 mi WNW 15.0 mph - 0.00 in   Partly Cloudy
7:25 AM 28.0 °F 16.1 °F 21.0 °F 75% 30.01 in 10.0 mi WNW 16.1 mph - N/A   Mostly Cloudy
7:37 AM 28.0 °F 15.3 °F 21.0 °F 75% 30.01 in 10.0 mi WNW 18.4 mph - N/A   Scattered Clouds
7:54 AM 27.0 °F 13.9 °F 19.0 °F 72% 30.04 in 10.0 mi WNW 18.4 mph - N/A   Partly Cloudy
8:40 AM 28.0 °F 16.1 °F 19.0 °F 69% 30.01 in 10.0 mi WNW 16.1 mph - N/A   Mostly Cloudy
8:54 AM 28.9 °F 17.7 °F 19.0 °F 67% 30.04 in 10.0 mi West 15.0 mph - N/A   Overcast
9:54 AM 28.9 °F 16.9 °F 21.0 °F 72% 30.03 in 9.0 mi WNW 17.3 mph - 0.00 in Snow Light Snow
10:39 AM 30.0 °F 19.5 °F 23.0 °F 75% 30.00 in 1.5 mi WNW 13.8 mph - 0.00 in Snow Light Snow
10:54 AM 30.0 °F 19.5 °F 24.1 °F 79% 30.03 in 1.8 mi West 13.8 mph - 0.00 in Snow Light Snow
11:01 AM 30.0 °F 19.1 °F 24.1 °F 79% 30.00 in 5.0 mi WNW 15.0 mph - 0.00 in Snow Light Snow
11:20 AM 30.0 °F 19.1 °F 24.1 °F 79% 30.00 in 2.0 mi WNW 15.0 mph - 0.00 in Snow Light Snow
11:54 AM 30.9 °F 21.2 °F 25.0 °F 79% 30.03 in 2.0 mi NW 12.7 mph - 0.00 in Snow Light Snow
12:03 PM 30.9 °F 19.8 °F 24.1 °F 76% 30.00 in 4.0 mi NW 16.1 mph - 0.00 in Snow Light Snow
12:54 PM 32.0 °F 19.5 °F 21.9 °F 66% 30.05 in 9.0 mi NW 21.9 mph 31.1 mph 0.00 in   Overcast
1:54 PM 32.0 °F 20.1 °F 21.9 °F 66% 30.06 in 8.0 mi NW 19.6 mph 31.1 mph 0.00 in Snow Light Snow
2:54 PM 32.0 °F 17.6 °F 25.0 °F 75% 30.09 in 4.0 mi NW 29.9 mph 39.1 mph 0.00 in Snow Light Snow
3:54 PM 30.9 °F 19.4 °F 24.1 °F 76% 30.12 in 5.0 mi NW 17.3 mph 38.0 mph 0.00 in Snow Light Snow
4:54 PM 30.9 °F 18.4 °F 23.0 °F 72% 30.15 in 7.0 mi NNW 20.7 mph 35.7 mph 0.00 in   Overcast
5:54 PM 30.0 °F 17.9 °F 21.0 °F 69% 30.19 in 6.0 mi NNW 18.4 mph 25.3 mph 0.00 in   Haze
6:08 PM 30.0 °F 18.3 °F 21.0 °F 69% 30.16 in 9.0 mi NW 17.3 mph 32.2 mph N/A   Overcast
6:54 PM 28.9 °F 16.5 °F 19.9 °F 69% 30.22 in 10.0 mi NNW 18.4 mph 28.8 mph 0.00 in Snow Light Snow
7:54 PM 28.9 °F 16.1 °F 19.9 °F 69% 30.24 in 9.0 mi NNW 19.6 mph 25.3 mph 0.00 in Snow Light Snow
8:54 PM 28.9 °F 16.5 °F 19.9 °F 69% 30.26 in 9.0 mi NNW 18.4 mph 26.5 mph 0.00 in Snow Light Snow
9:54 PM 28.0 °F 15.3 °F 21.0 °F 75% 30.29 in 9.0 mi NW 18.4 mph 25.3 mph 0.00 in Snow Light Snow
10:54 PM 28.0 °F 17.5 °F 21.0 °F 75% 30.30 in 9.0 mi NNW 12.7 mph - 0.00 in Snow Light Snow
11:54 PM 27.0 °F 16.1 °F 21.0 °F 78% 30.32 in 9.0 mi NNW 12.7 mph - 0.00 in Snow Light Snow